PulseSat

PulseSat

GSAT0218 (GALILEO 22)

Last updated on April 21, 2019, 3:01 a.m. UTC

1 43058U 17079D   19109.58250390 -.00000034  00000-0  00000+0 0  9993
2 43058  56.6067 293.4327 0002300 253.1328 106.8192  1.70474072  8390
UTC
Height (km)
Latitude
Longitude
Inclination
Orbital Period

Next 30 passes for location: Hong Kong

Rise time Rise Azimuth (degrees) Set time Set Azimuth (degrees) Duration Max altitude (degrees)

No matching passes for this satellites

PulseSat

PulseSat is the new satellites software and hardware trackering solution by Pulsely.
Satellite Two Line Element Set source: US Air Force Space Command

Download PulseSat for iOS
© 2017 Pulsely Limited